This is the latest recevied weather packets stored in our database for station/object OH2EGI-2. If no packets are shown the sender has not sent any weather packets the latest 10 day(s).
| Time | Temp. | Humidity | Pressure | Rain* | Wind** | Luminosity | Snow |
|---|---|---|---|---|---|---|---|
| 1777961197 | 16.11° C | 59% | 992.5 hPa | 0 mm | - | - | - |
| 1777960897 | 16.11° C | 62% | 992.6 hPa | 0 mm | - | - | - |
| 1777960597 | 16.11° C | 62% | 992.7 hPa | 0 mm | - | - | - |
| 1777960297 | 16.11° C | 66% | 992.7 hPa | 0 mm | - | - | - |
| 1777959997 | 15.56° C | 68% | 992.7 hPa | 0 mm | - | - | - |
| 1777959697 | 15° C | 71% | 992.8 hPa | 0 mm | - | - | - |
| 1777959397 | 14.44° C | 75% | 992.8 hPa | 0 mm | - | - | - |
| 1777959097 | 13.33° C | 76% | 992.8 hPa | 0 mm | - | - | - |
| 1777958797 | 11.67° C | 68% | 992.8 hPa | 0 mm | - | - | - |
| 1777958497 | 10° C | 59% | 992.9 hPa | 0 mm | - | - | - |
| 1777958197 | 8.33° C | 64% | 992.9 hPa | 0 mm | - | - | - |
| 1777957897 | 7.78° C | 62% | 992.9 hPa | 0 mm | - | - | - |
| 1777957597 | 7.78° C | 59% | 992.9 hPa | 0 mm | - | - | - |
| 1777957297 | 7.22° C | 59% | 992.9 hPa | 0 mm | - | - | - |
| 1777956997 | 7.22° C | 58% | 992.8 hPa | 0 mm | - | - | - |
| 1777956697 | 7.22° C | 55% | 993 hPa | 0 mm | - | - | - |
| 1777956397 | 6.67° C | 54% | 993.2 hPa | 0 mm | - | - | - |
| 1777956097 | 6.67° C | 53% | 993.2 hPa | 0 mm | - | - | - |
| 1777955797 | 6.11° C | 53% | 993.2 hPa | 0 mm | - | - | - |
| 1777955497 | 6.11° C | 53% | 993.2 hPa | 0 mm | - | - | - |
| 1777955197 | 5.56° C | 54% | 993.3 hPa | 0 mm | - | - | - |
| 1777954897 | 5.56° C | 54% | 993 hPa | 0 mm | - | - | - |
| 1777954597 | 5.56° C | 55% | 992.9 hPa | 0 mm | - | - | - |
| 1777954297 | 5.56° C | 55% | 992.8 hPa | 0 mm | - | - | - |
| 1777953997 | 5.56° C | 56% | 992.9 hPa | 0 mm | - | - | - |
* Rain latest hour (hover to see other rain measurements)
** Current wind speed in m/s (hover to see current wind gust speed)